Regional Weather Roundup
Issued by NWS San Angelo, TX

Home | Current Version | Previous Version | Text Only | Print | Product List | Glossary On
Versions: 1 2 3 4 5 6 7 8 9 10 11 12 13 14 15 16 17 18 19 20 21 22 23 24 25 26 27 28 29 30 31 32 33 34 35 36 37 38 39 40 41 42 43 44 45 46 47 48 49 50
000
ASUS44 KSJT 080210
RWRSJT
WEST CENTRAL TEXAS REGIONAL WEATHER ROUNDUP
NATIONAL WEATHER SERVICE SAN ANGELO TX
900 PM CDT TUE JUL 07 2015

NOTE: "FAIR" INDICATES FEW OR NO CLOUDS BELOW 12,000 FEET WITH NO
SIGNIFICANT WEATHER AND/OR OBSTRUCTIONS TO VISIBILITY.

TXZ049-054-064>066-071>073-076>078-098-099-113-114-127-128-139-140-
154-155-168>170-080300
...LOCATIONS ACROSS WEST CENTRAL TEXAS...

CITY           SKY/WX    TMP DP  RH WIND       PRES   REMARKS
SAN ANGELO     CLOUDY    73  69  87 NW3       29.96R
ABILENE        CLOUDY    73  71  93 N8        29.98R
DYESS AFB      LGT RAIN  72  69  92 N7        29.97R
JUNCTION       CLOUDY    82  69  64 S7        29.95S
SWEETWATER     CLOUDY    70  70 100 N10       30.03R
BROWNWOOD      CLOUDY    81  72  74 NW3       29.94R
COLEMAN        CLOUDY    75  75  98 E3        29.96R
SONORA         RAIN      73  73 100 CALM      30.01S
OZONA          LGT RAIN  70  66  88 CALM      30.02R
BRADY          CLEAR     82  66  57 NE7       29.93R
$$

TEXAS PANHANDLE/OKLAHOMA PANHANDLE

CITY           SKY/WX    TMP DP  RH WIND       PRES   REMARKS
AMARILLO       CLOUDY    64  57  78 E6        30.11R HAZE
BORGER         PTCLDY    65  58  78 NE10      30.09R HAZE
CANADIAN       CLOUDY    64  60  88 NE7       30.07R
DALHART        MOCLDY    69  56  62 SE9       30.13R HAZE
DUMAS          CLEAR     64  57  78 E7        30.11R HAZE
GUYMON         NOT AVBL
HEREFORD       PTCLDY    67  61  82 MISG      30.12R HAZE
PAMPA          CLOUDY    61  57  86 CALM      30.10S FOG
PERRYTON       PTCLDY    65  50  57 E8        30.09R
$$

SOUTHERN PANHANDLE/SOUTH PLAINS/ROLLING PLAINS

CITY           SKY/WX    TMP DP  RH WIND       PRES   REMARKS
LUBBOCK        CLOUDY    65  62  90 NE9       30.08R
SNYDER         CLOUDY    69  66  90 N12       30.03R
CHILDRESS      CLOUDY    66  63  90 N10       30.02S
SEMINOLE       CLOUDY    69  63  80 NE8       30.09R
$$

PERMIAN BASIN

CITY           SKY/WX    TMP DP  RH WIND       PRES   REMARKS
MIDLAND        MOCLDY    74  67  78 NE15      30.03R
ODESSA         PTCLDY    74  66  76 NE14      30.04R
WINK           PTCLDY    80  64  58 E14       30.01R
$$

FAR WEST/SOUTHWEST MOUNTAINS/TRANS PECOS

CITY           SKY/WX    TMP DP  RH WIND       PRES   REMARKS
ALPINE         CLEAR     76  64  67 E9        30.14R
DRYDEN           N/A     72  69  90 VRB5      29.98R
EL PASO        MOCLDY    73  63  70 E16G25    30.00R THUNDER
FORT STOCKTON  MOCLDY    77  68  73 E16       30.02R
GUADALUPE PASS CLOUDY    69  61  75 NE28G36   30.17R
MARFA          MOCLDY   N/A N/A N/A NE13      30.11R
PECOS          PTCLDY    81  65  57 E17       30.00R
$$

DALLAS/FORT WORTH METROPLEX

CITY           SKY/WX    TMP DP  RH WIND       PRES   REMARKS
DFW AIRPORT    MOCLDY    85  71  63 S12       29.91R
FTW MEACHAM    CLOUDY    85  72  65 SE14      29.89S
DAL-EXECUTIVE  MOCLDY    84  73  69 S8        29.91S
GRAND PRAIRIE  MOCLDY    84  73  70 SE8       29.92S
ADDISON        MOCLDY    84  70  61 S13       29.92S
MESQUITE       MOCLDY    82  74  77 SE9       29.93S
LANCASTER      MOCLDY    83  72  70 S9        29.93S
$$

NORTH CENTRAL TEXAS

CITY           SKY/WX    TMP DP  RH WIND       PRES   REMARKS
SHRMAN/DENISON CLOUDY    79  75  89 N5        29.94R
GAINESVILLE    CLOUDY    78  72  82 CALM      29.94R
BRIDGEPORT     CLOUDY    78  78 100 CALM      29.93R
DENTON         CLOUDY    82  71  69 SE8       29.90S
WAXAHACHIE     MOCLDY    83  74  75 SE10      29.94R
GRANBURY         N/A     85  71  62 SE7       29.92R
$$

WESTERN NORTH TEXAS

CITY           SKY/WX    TMP DP  RH WIND       PRES   REMARKS
WICHITA FALLS  LGT RAIN  71  69  93 NW6       29.93S
VERNON         CLOUDY    69  62  77 N13       29.98R
BRECKENRIDGE   LGT RAIN  74  74  98 CALM      29.94R
COMANCHE       CLOUDY    81  70  69 CALM      29.94R
$$

CENTRAL AND SOUTH CENTRAL TEXAS

CITY           SKY/WX    TMP DP  RH WIND       PRES   REMARKS
AUSTIN/BERGSTM MOCLDY    82  72  71 S14       29.95R
WACO           MOCLDY    85  73  67 S16       29.92R
HILLSBORO      CLOUDY    82  72  71 SE13G20   29.93R
TEMPLE         MOCLDY    82  70  65 SE15G21   29.94R
KILLEEN-GRAY   MOCLDY    80  72  76 S13       29.94R
FORT HOOD      MOCLDY    82  71  71 S12       29.93R
GEORGETOWN     CLEAR     82  72  69 SE12      29.94R
LAGO VISTA     FAIR      82  71  69 SE10G21   29.98R
SAN MARCOS     PTCLDY    82  70  65 S15G22    29.96R
NEW BRAUNFELS  PTCLDY    83  73  72 S14G21    29.95R
RANDOLPH AFB   PTCLDY    81  73  74 SE15      29.96R
SAN ANTONIO    MOCLDY    83  73  72 SE21      29.96R
STINSON        CLOUDY    83  74  74 SE15G23   29.93R
PLEASANTON     NOT AVBL
LA GRANGE      PTCLDY    83  77  82 S7        29.96R
GIDDINGS       MOCLDY    82  73  75 S7        30.01R
$$

EAST TEXAS

CITY           SKY/WX    TMP DP  RH WIND       PRES   REMARKS
PARIS          MOCLDY    75  72  88 S6        29.95F
CLARKSVILLE    NOT AVBL
TYLER          MOCLDY    78  74  87 SE7       29.97R
LONGVIEW       MOCLDY    83  75  77 S8        29.98R
PALESTINE      DRIZZLE   81  74  80 SE7       29.98R
NACOGDOCHES    MOCLDY   N/A N/A N/A S6        30.00R
$$

TEXAS HILL COUNTRY AND EDWARDS PLATEAU

CITY           SKY/WX    TMP DP  RH WIND       PRES   REMARKS
LLANO          MOCLDY    84  72  65 S9        29.97R
HORSESHOE BAY  FAIR      83  71  66 SE8       29.95R
KERRVILLE      CLOUDY    81  74  77 SE12      29.98R
FREDERICKSBRG  MOCLDY    79  70  72 S7        29.98R
ROCKSPRINGS    CLOUDY    79  70  73 CALM      30.02S
HONDO          CLOUDY    84  74  71 SE14      29.95R
UVALDE         CLOUDY    82  73  72 E3        29.93R
DEL RIO        MOCLDY    82  71  69 CALM      29.91R
$$

SOUTHEAST TEXAS

CITY           SKY/WX    TMP DP  RH WIND       PRES   REMARKS
COLLEGE STN    PTCLDY    83  73  72 S13       29.97R
CALDWELL       PTCLDY    81  75  83 SE12      30.00R
CROCKETT       MOCLDY    77  75  94 CALM      30.02R
BRENHAM        PTCLDY    84  74  70 S7        29.99R
HUNTSVILLE     MOCLDY    83  75  77 S5        29.99R
CONROE         PTCLDY    81  74  79 SE6       30.00R
HOUSTON BUSH   MOCLDY    84  75  74 S8        30.00R
HOUSTON HOBBY  MOCLDY    83  77  82 SE9       29.99S
PERLAND        MOCLDY    84  77  79 SE7       30.01S
WHARTON        PTCLDY    81  76  84 SE7       29.99R
$$

THE UPPER TEXAS COAST

CITY           SKY/WX    TMP DP  RH WIND       PRES   REMARKS
ORANGE         PTCLDY    83  73  69 CALM      30.04S
PORT ARTHUR    PTCLDY    82  77  84 S9        30.02S
GALVESTON      PTCLDY    85  79  82 S18       30.02R
ANGLETON       MOCLDY    84  78  82 S9        30.00R
BAY CITY       CLOUDY    83  79  89 SE5       29.99R
$$

TEXAS COASTAL BEND, RIO GRANDE PLAINS DEEP SOUTH TEXAS

CITY           SKY/WX    TMP DP  RH WIND       PRES   REMARKS
VICTORIA       PTCLDY    82  77  84 SE13      29.97S
BEEVILLE       FAIR      82  77  85 SE10G16   29.95S
ROCKPORT       LGT RAIN  84  78  82 SE12      29.96R
PORT ARANSAS   CLOUDY    82  79  92 SE9       29.96R
PORT LAVACA    MOCLDY    82  79  89 SE8       29.98R
CORPUS CHRISTI CLOUDY    83  77  82 SE14      29.95R
KINGSVILLE NAS CLOUDY    83  80  91 SE12G23   29.94R
COTULLA        LGT RAIN  89  69  51 SE13G21   29.90R
LAREDO         MOCLDY    90  71  53 SE20G25   29.90R
BROWNSVILLE    CLOUDY    83  78  85 SE13G21   29.95R
PORT ISABEL    MOCLDY    83  78  85 S16       29.94R
HEBBRONVILLE     N/A     84  71  64 SE10      29.93R
MCALLEN        PTCLDY    87  74  64 SE15G24   29.93R
WESLACO        PTCLDY    83  74  73 SE13G21   29.93R
FALFURRIAS     PTCLDY    84  76  76 SE9       29.92R
EDINBURG       PTCLDY    85  74  69 SE8       29.93R
$$


USA.gov is the U.S. government's official web portal to all federal, state and local government web resources and services.